Location: Ladrillo (historical)
(32.8195°N, 117.2231°W)
Time: 23:18:06
(UTC+00:00)

X-37B - Pass Details

Date: 31 January 2021
Orbit: 383 x 391 km, 45.0° (Epoch: 10 February)

Event Time Altitude Azimuth Distance (km) Brightness Sun altitude
Rises 02:42:07 0° 308° (NW) 2,272 5.1 -17.5°
Reaches altitude 10° 02:44:13 10° 313° (NW) 1,416 3.9 -17.9°
Enters shadow 02:47:07 52° 13° (NNE) 491 0.9 -18.5°
